{"data":{"norad_id":55357,"intl_designator":"2023-013AC","name":"STARLINK-5651","alt_names":[],"object_type":"PAYLOAD","status":"ACTIVE","operator":null,"country":"US","launch_date":"2023-01-26","launch_site_code":"AFETR","launch_vehicle":null,"mission":null,"orbit_class":"UNKNOWN","rcs_meters":null,"size_class":null,"mass_kg":null,"dimensions":null,"purposes":["comms"],"wikipedia_slug":null,"has_3d_model":false,"image_url":null,"decayed_at":null,"tle_current":{"epoch":"2026-05-24T15:53:45.432096Z","epoch_age_seconds":107812,"freshness":"FRESH","line1":"1 55357U 23013AC  26144.66233139 -.00000149  00000+0  41270-5 0  9997","line2":"2 55357  43.0024 234.2409 0001480 270.0288  90.0394 15.27578059183291","mean_motion":15.27578059,"eccentricity":0.000148,"inclination_deg":43.0024,"raan_deg":234.2409,"arg_perigee_deg":270.0288,"mean_anomaly_deg":90.0394,"bstar":4.127e-6,"rev_number":18329,"period_min":94.266868492643,"perigee_km":482.03945169568,"apogee_km":484.07036450048,"semimajor_km":6861.1919080981,"source":"CELESTRAK","updated_at":"2026-05-25T13:38:17.765005Z"}}}